Location: Jefferson
(30.9666°N, 81.7901°W)
Time: 23:07:41
(UTC+00:00)

Hubble Space Telescope - Pass Details

Date: 28 September 2024
Orbit: 504 x 508 km, 28.5° (Epoch: 06 October)

Event Time Altitude Azimuth Distance (km) Brightness Sun altitude
Exits shadow 10:35:52 13° 246° (WSW) 1,541 2.5 -10.1°
Maximum altitude 10:39:15 51° 172° (S) 634 1.2 -9.4°
Drops below altitude 10° 10:43:03 10° 96° (E) 1,698 5.0 -8.6°
Sets 10:45:19 0° 91° (E) 2,583 6.8 -8.1°
